Flag for Germany Weather past 2 weeks in Pirna, Saxony, Germany

Now
64 °F

Overcast.


Feels Like: 64 °F
Forecast: 50 / 68 °F
Wind: 3 mph from Southwest

Location: Dresden-Klotzsche

Current Time: May 28, 2015 at 9:00:54 PM

Latest Report: May 28, 2015 at 8:00 PM


Visibility: 28 mi

Pressure: 29.90 "Hg

Humidity: 43%

Dew point: 41 °F

Location of PirnaLocation

Historic Weather in Pirna — Graph

°F

Pirna temperature yesterday

Maximum temperature yesterday: 53 °F (at 7:00 PM)
Minimum temperature yesterday: 45 °F (at 6:00 AM)
Average temperature yesterday: 50 °F

Past Weeks' High & Low Weather Summary

 TemperatureHumidityPressure
High70 °F (May 18, 6:00 PM)99% (May 26, 4:00 AM)30.34 "Hg (May 26, 4:00 AM)
Low37 °F (May 15, 6:00 AM)34% (May 28, 3:00 PM)29.67 "Hg (May 19, 3:00 AM)
Average55 °F64%30.03 "Hg
* Reported May 13 8:00 PM — May 28 8:00 PM, Pirna, Weather by CustomWeather, © 2015

Note: Actual official high and low records may vary slightly from our data, if they occured in-between our weather recording intervals... More about our weather records

Advertising

Pirna weather history for previous 24 hours

 ConditionsComfort  
Time TempWeatherWind HumidityBarometerVisibility
8:00 PM
Thu, May 28
64 °FOvercast.3 mph43%29.90 "Hg28 mi
7:00 PM66 °FOvercast.3 mph37%29.90 "Hg28 mi
6:00 PM66 °FPartly sunny.6 mph38%29.90 "Hg25 mi
4:00 PM67 °FScattered clouds.6 mph36%29.94 "Hg25 mi
3:00 PM64 °FPartly sunny.6 mph34%29.97 "Hg25 mi
2:00 PM62 °FPartly sunny.3 mph38%29.98 "Hg28 mi
1:00 PM60 °FOvercast.5 mph40%30.00 "Hg31 mi
12:00 PM59 °FOvercast.6 mph41%30.03 "Hg34 mi
11:00 AM58 °FOvercast.5 mph41%30.05 "Hg31 mi
10:00 AM56 °FPartly sunny.7 mph46%30.06 "Hg28 mi
9:00 AM56 °FPartly sunny.6 mph53%30.08 "Hg25 mi
8:00 AM51 °FScattered clouds.3 mph71%30.09 "Hg19 mi
7:00 AM48 °FScattered clouds.3 mph80%30.10 "Hg19 mi
6:00 AM45 °FScattered clouds.3 mph87%30.11 "Hg22 mi
4:00 AM46 °FPassing clouds.2 mph80%30.11 "Hg22 mi
3:00 AM47 °FPassing clouds.2 mph82%30.12 "Hg22 mi
2:00 AM46 °FPassing clouds.2 mph81%30.13 "Hg19 mi
1:00 AM48 °FPassing clouds.3 mph77%30.13 "Hg22 mi
12:00 AM50 °FOvercast.3 mph76%30.14 "Hg22 mi
10:00 PM
Wed, May 27
51 °FOvercast.2 mph73%30.15 "Hg25 mi
9:00 PM51 °FOvercast.3 mph73%30.15 "Hg25 mi
Weather by CustomWeather, © 2015

See weather overviewHow to use our weather pages